Flag for Germany Weather past 2 weeks in Olpe, North Rhine-Westphalia, Germany

Now
57 °F

Sunny.


Feels Like: 55 °F
Forecast: 52 / 70 °F
Wind: 8 mph from Southeast

Location: Hessen

Current Time: May 5, 2015 at 1:10:19 AM

Latest Report: May 4, 2015 at 9:50 PM


Visibility: 10 mi

Pressure: 29.74 "Hg

Humidity: 77%

Dew point: 50 °F

Location of OlpeLocation

Historic Weather in Olpe — Graph

°F

Olpe temperature yesterday

Maximum temperature yesterday: 64 °F (at 2:50 PM)
Minimum temperature yesterday: 52 °F (at 7:20 AM)
Average temperature yesterday: 59 °F

Past Weeks' High & Low Weather Summary

 TemperatureHumidityPressure
High68 °F (Apr 21, 3:20 PM)100% (Apr 25, 12:20 PM)30.42 "Hg (Apr 25, 12:20 PM)
Low32 °F (Apr 28, 6:50 AM)30% (Apr 21, 1:20 PM)29.59 "Hg (Apr 27, 7:50 AM)
Average51 °F68%29.95 "Hg
* Reported Apr 20 7:50 AM — May 4 9:50 PM, Olpe, Weather by CustomWeather, © 2015

Note: Actual official high and low records may vary slightly from our data, if they occured in-between our weather recording intervals... More about our weather records

Advertising

Olpe weather history for previous 24 hours

 ConditionsComfort  
Time TempWeatherWind HumidityBarometerVisibility
9:50 PM
Mon, May 4
57 °FSunny.8 mph77%29.74 "Hg10 mi
9:20 PM57 °FSunny.9 mph77%29.74 "Hg10 mi
8:50 PM57 °FSunny.8 mph77%29.74 "Hg10 mi
8:20 PM59 °FSunny.8 mph72%29.77 "Hg10 mi
7:50 PM61 °FSunny.7 mph68%29.77 "Hg10 mi
7:20 PM61 °FSunny.8 mph68%29.77 "Hg10 mi
6:50 PM63 °FSunny.7 mph64%29.80 "Hg10 mi
6:20 PM64 °FPassing clouds.8 mph56%29.80 "HgN/A
5:50 PM64 °FScattered clouds.8 mph56%29.83 "HgN/A
5:20 PM64 °FScattered clouds.8 mph60%29.83 "HgN/A
4:50 PM64 °FScattered clouds.8 mph56%29.83 "HgN/A
4:20 PM64 °FScattered clouds.7 mph56%29.83 "HgN/A
3:50 PM64 °FScattered clouds.9 mph52%29.83 "HgN/A
3:20 PM64 °FScattered clouds.8 mph56%29.83 "HgN/A
2:50 PM64 °FScattered clouds.9 mph56%29.83 "HgN/A
2:20 PM63 °FScattered clouds.12 mph59%29.83 "HgN/A
1:50 PM63 °FScattered clouds.12 mph59%29.83 "HgN/A
1:20 PM61 °FScattered clouds.12 mph63%29.83 "HgN/A
12:50 PM61 °FPartly sunny.12 mph63%29.86 "HgN/A
12:20 PM59 °FPartly sunny.13 mph72%29.86 "HgN/A
11:50 AM59 °FPartly sunny.13 mph72%29.86 "HgN/A
11:20 AM57 °FBroken clouds.10 mph82%29.83 "HgN/A
10:50 AM55 °FBroken clouds.9 mph82%29.83 "HgN/A
10:20 AM54 °FBroken clouds.10 mph94%29.83 "HgN/A
9:50 AM55 °FPartly sunny.12 mph88%29.83 "HgN/A
9:20 AM54 °FBroken clouds.12 mph94%29.83 "HgN/A
8:50 AM54 °FBroken clouds.12 mph100%29.83 "HgN/A
8:20 AM54 °FPartly sunny.12 mph94%29.80 "HgN/A
7:50 AM52 °FPartly sunny.9 mph100%29.80 "HgN/A
7:20 AM52 °FPartly sunny.9 mph100%29.80 "Hg5 mi
Weather by CustomWeather, © 2015

See weather overviewHow to use our weather pages